This is the latest recevied weather packets stored in our database for station/object WZ8H. If no packets are shown the sender has not sent any weather packets the latest 10 day(s).
| Time | Temp. | Humidity | Pressure | Rain* | Wind** | Luminosity | Snow |
|---|---|---|---|---|---|---|---|
| 1777577058 | 12.78° C | 56% | 1013.6 hPa | 0 mm | - | 877 W/m² | - |
| 1777576727 | 12.78° C | 59% | 1013.7 hPa | 0 mm | - | 888 W/m² | - |
| 1777576401 | 12.78° C | 58% | 1013.8 hPa | 0 mm | - | 933 W/m² | - |
| 1777576074 | 13.33° C | 61% | 1013.7 hPa | 0 mm | - | 956 W/m² | - |
| 1777575771 | 12.78° C | 60% | 1013.8 hPa | 0 mm | - | 1018 W/m² | - |
| 1777575443 | 12.78° C | 61% | 1013.9 hPa | 0 mm | - | 954 W/m² | - |
| 1777575141 | 12.22° C | 61% | 1013.8 hPa | 0 mm | - | 995 W/m² | - |
| 1777574813 | 12.22° C | 59% | 1013.9 hPa | 0 mm | - | 956 W/m² | - |
| 1777574509 | 12.22° C | 61% | 1013.9 hPa | 0 mm | - | 939 W/m² | - |
| 1777574204 | 12.22° C | 64% | 1013.9 hPa | 0 mm | - | 986 W/m² | - |
| 1777573901 | 12.22° C | 64% | 1014 hPa | 0 mm | - | 1041 W/m² | - |
| 1777573575 | 12.22° C | 66% | 1013.9 hPa | 0 mm | - | 998 W/m² | - |
| 1777573249 | 11.67° C | 67% | 1013.9 hPa | 0 mm | - | 907 W/m² | - |
| 1777572923 | 11.11° C | 65% | 1014 hPa | 0 mm | - | 399 W/m² | - |
| 1777572597 | 11.11° C | 65% | 1013.9 hPa | 0 mm | - | 429 W/m² | - |
| 1777572272 | 11.67° C | 64% | 1014 hPa | 0 mm | - | 311 W/m² | - |
| 1777571972 | 11.67° C | 66% | 1014 hPa | 0 mm | - | 403 W/m² | - |
| 1777571660 | 11.67° C | 65% | 1014.1 hPa | 0 mm | - | 1051 W/m² | - |
| 1777571357 | 11.67° C | 64% | 1014 hPa | 0 mm | - | 1055 W/m² | - |
| 1777571029 | 11.67° C | 66% | 1014.1 hPa | 0 mm | - | 1023 W/m² | - |
| 1777570729 | 11.67° C | 67% | 1014 hPa | 0 mm | - | 1074 W/m² | - |
| 1777570427 | 11.11° C | 68% | 1014.1 hPa | 0 mm | - | 1076 W/m² | - |
| 1777570126 | 11.11° C | 67% | 1014.1 hPa | 0 mm | - | 190 W/m² | - |
| 1777569826 | 11.67° C | 67% | 1014.2 hPa | 0 mm | - | 1107 W/m² | - |
| 1777569526 | 11.67° C | 66% | 1014.3 hPa | 0 mm | - | 1028 W/m² | - |
* Rain latest hour (hover to see other rain measurements)
** Current wind speed in m/s (hover to see current wind gust speed)